Year,Month,Day,Hour,Minute,Value (Times are PST for temperature in C)
2010,07,26,00,00,17.80
2010,07,26,00,01,17.70
2010,07,26,00,02,17.70
2010,07,26,00,03,17.70
2010,07,26,00,04,17.60
2010,07,26,00,05,17.60
2010,07,26,00,06,17.50
2010,07,26,00,07,17.50
2010,07,26,00,08,17.40
2010,07,26,00,09,17.40
2010,07,26,00,10,17.30
2010,07,26,00,11,17.30
2010,07,26,00,12,17.30
2010,07,26,00,13,17.30
2010,07,26,00,14,17.20
2010,07,26,00,15,17.20
2010,07,26,00,16,17.20
2010,07,26,00,17,17.10
2010,07,26,00,18,17.10
2010,07,26,00,19,17.10
2010,07,26,00,20,17.10
2010,07,26,00,21,17.00
2010,07,26,00,22,17.00
2010,07,26,00,23,17.00
2010,07,26,00,24,17.00
2010,07,26,00,25,16.90
2010,07,26,00,26,16.90
2010,07,26,00,27,16.90
2010,07,26,00,28,16.90
2010,07,26,00,29,16.80
2010,07,26,00,30,16.80
2010,07,26,00,31,16.80
2010,07,26,00,32,16.80
2010,07,26,00,33,16.80
2010,07,26,00,34,16.70
2010,07,26,00,35,16.70
2010,07,26,00,36,16.60
2010,07,26,00,37,16.60
2010,07,26,00,38,16.60
2010,07,26,00,39,16.50
2010,07,26,00,40,16.50
2010,07,26,00,41,16.40
2010,07,26,00,42,16.40
2010,07,26,00,43,16.40
2010,07,26,00,44,16.40
2010,07,26,00,45,16.30
2010,07,26,00,46,16.30
2010,07,26,00,47,16.30
2010,07,26,00,48,16.20
2010,07,26,00,49,16.20
2010,07,26,00,50,16.20
2010,07,26,00,51,16.10
2010,07,26,00,52,16.10
2010,07,26,00,53,16.10
2010,07,26,00,54,16.00
2010,07,26,00,55,16.00
2010,07,26,00,56,16.00
2010,07,26,00,57,15.90
2010,07,26,00,58,15.90
2010,07,26,00,59,15.90
2010,07,26,01,00,15.90
2010,07,26,01,01,15.80
2010,07,26,01,02,15.80
2010,07,26,01,03,15.80
2010,07,26,01,04,15.80
2010,07,26,01,05,15.70
2010,07,26,01,06,15.70
2010,07,26,01,07,15.70
2010,07,26,01,08,15.60
2010,07,26,01,09,15.60
2010,07,26,01,10,15.60
2010,07,26,01,11,15.60
2010,07,26,01,12,15.50
2010,07,26,01,13,15.50
2010,07,26,01,14,15.40
2010,07,26,01,15,15.40
2010,07,26,01,16,15.40
2010,07,26,01,17,15.40
2010,07,26,01,18,15.40
2010,07,26,01,19,15.40
2010,07,26,01,20,15.30
2010,07,26,01,21,15.30
2010,07,26,01,22,15.30
2010,07,26,01,23,15.30
2010,07,26,01,24,15.30
2010,07,26,01,25,15.30
2010,07,26,01,26,15.30
2010,07,26,01,27,15.30
2010,07,26,01,28,15.30
2010,07,26,01,29,15.30
2010,07,26,01,30,15.20
2010,07,26,01,31,15.20
2010,07,26,01,32,15.20
2010,07,26,01,33,15.20
2010,07,26,01,34,15.20
2010,07,26,01,35,15.20
2010,07,26,01,36,15.10
2010,07,26,01,37,15.10
2010,07,26,01,38,15.10
2010,07,26,01,39,15.10
2010,07,26,01,40,15.10
2010,07,26,01,41,15.10
2010,07,26,01,42,15.00
2010,07,26,01,43,15.00
2010,07,26,01,44,15.00
2010,07,26,01,45,15.00
2010,07,26,01,46,15.00
2010,07,26,01,47,14.90
2010,07,26,01,48,14.90
2010,07,26,01,49,14.90
2010,07,26,01,50,14.90
2010,07,26,01,51,14.90
2010,07,26,01,52,14.90
2010,07,26,01,53,14.90
2010,07,26,01,54,14.80
2010,07,26,01,55,14.80
2010,07,26,01,56,14.80
2010,07,26,01,57,14.80
2010,07,26,01,58,14.80
2010,07,26,01,59,14.80
2010,07,26,02,00,14.80
2010,07,26,02,01,14.80
2010,07,26,02,02,14.80
2010,07,26,02,03,14.80
2010,07,26,02,04,14.80
2010,07,26,02,05,14.80
2010,07,26,02,06,14.70
2010,07,26,02,07,14.70
2010,07,26,02,08,14.70
2010,07,26,02,09,14.70
2010,07,26,02,10,14.70
2010,07,26,02,11,14.70
2010,07,26,02,12,14.60
2010,07,26,02,13,14.60
2010,07,26,02,14,14.60
2010,07,26,02,15,14.60
2010,07,26,02,16,14.60
2010,07,26,02,17,14.50
2010,07,26,02,18,14.50
2010,07,26,02,19,14.40
2010,07,26,02,20,14.40
2010,07,26,02,21,14.40
2010,07,26,02,22,14.40
2010,07,26,02,23,14.30
2010,07,26,02,24,14.30
2010,07,26,02,25,14.30
2010,07,26,02,26,14.30
2010,07,26,02,27,14.30
2010,07,26,02,28,14.20
2010,07,26,02,29,14.20
2010,07,26,02,30,14.20
2010,07,26,02,31,14.20
2010,07,26,02,32,14.20
2010,07,26,02,33,14.20
2010,07,26,02,34,14.10
2010,07,26,02,35,14.10
2010,07,26,02,36,14.10
2010,07,26,02,37,14.10
2010,07,26,02,38,14.00
2010,07,26,02,39,14.00
2010,07,26,02,40,14.00
2010,07,26,02,41,13.90
2010,07,26,02,42,13.90
2010,07,26,02,43,13.90
2010,07,26,02,44,13.90
2010,07,26,02,45,13.90
2010,07,26,02,46,13.80
2010,07,26,02,47,13.80
2010,07,26,02,48,13.80
2010,07,26,02,49,13.80
2010,07,26,02,50,13.80
2010,07,26,02,51,13.80
2010,07,26,02,52,13.80
2010,07,26,02,53,13.70
2010,07,26,02,54,13.70
2010,07,26,02,55,13.70
2010,07,26,02,56,13.70
2010,07,26,02,57,13.70
2010,07,26,02,58,13.70
2010,07,26,02,59,13.70
2010,07,26,03,00,13.70
2010,07,26,03,06,13.60
2010,07,26,03,07,13.60
2010,07,26,03,08,13.60
2010,07,26,03,09,13.60
2010,07,26,03,10,13.60
2010,07,26,03,11,13.60
2010,07,26,03,12,13.50
2010,07,26,03,13,13.50
2010,07,26,03,14,13.50
2010,07,26,03,15,13.50
2010,07,26,03,16,13.50
2010,07,26,03,17,13.40
2010,07,26,03,18,13.40
2010,07,26,03,19,13.40
2010,07,26,03,20,13.40
2010,07,26,03,21,13.40
2010,07,26,03,22,13.40
2010,07,26,03,23,13.30
2010,07,26,03,24,13.30
2010,07,26,03,25,13.30
2010,07,26,03,26,13.30
2010,07,26,03,27,13.30
2010,07,26,03,28,13.30
2010,07,26,03,29,13.30
2010,07,26,03,30,13.30
2010,07,26,03,31,13.30
2010,07,26,03,32,13.30
2010,07,26,03,33,13.20
2010,07,26,03,34,13.20
2010,07,26,03,35,13.20
2010,07,26,03,36,13.20
2010,07,26,03,37,13.20
2010,07,26,03,38,13.20
2010,07,26,03,39,13.20
2010,07,26,03,40,13.10
2010,07,26,03,41,13.10
2010,07,26,03,42,13.10
2010,07,26,03,43,13.10
2010,07,26,03,44,13.10
2010,07,26,03,45,13.10
2010,07,26,03,46,13.10
2010,07,26,03,47,13.00
2010,07,26,03,48,13.00
2010,07,26,03,49,13.00
2010,07,26,03,50,13.00
2010,07,26,03,51,12.90
2010,07,26,03,52,12.90
2010,07,26,03,53,12.90
2010,07,26,03,54,12.90
2010,07,26,03,55,12.90
2010,07,26,03,56,12.90
2010,07,26,03,57,12.80
2010,07,26,03,58,12.80
2010,07,26,03,59,12.80
2010,07,26,04,00,12.80
2010,07,26,04,01,12.80
2010,07,26,04,02,12.80
2010,07,26,04,03,12.70
2010,07,26,04,04,12.70
2010,07,26,04,05,12.70
2010,07,26,04,06,12.70
2010,07,26,04,07,12.70
2010,07,26,04,08,12.70
2010,07,26,04,09,12.70
2010,07,26,04,10,12.70
2010,07,26,04,11,12.70
2010,07,26,04,12,12.70
2010,07,26,04,13,12.70
2010,07,26,04,14,12.70
2010,07,26,04,15,12.60
2010,07,26,04,16,12.60
2010,07,26,04,17,12.60
2010,07,26,04,18,12.60
2010,07,26,04,19,12.60
2010,07,26,04,20,12.60
2010,07,26,04,21,12.50
2010,07,26,04,22,12.50
2010,07,26,04,23,12.50
2010,07,26,04,24,12.50
2010,07,26,04,25,12.50
2010,07,26,04,26,12.40
2010,07,26,04,27,12.40
2010,07,26,04,28,12.40
2010,07,26,04,29,12.40
2010,07,26,04,30,12.40
2010,07,26,04,31,12.40
2010,07,26,04,32,12.40
2010,07,26,04,33,12.30
2010,07,26,04,34,12.30
2010,07,26,04,35,12.30
2010,07,26,04,36,12.30
2010,07,26,04,37,12.30
2010,07,26,04,38,12.30
2010,07,26,04,39,12.30
2010,07,26,04,40,12.30
2010,07,26,04,41,12.20
2010,07,26,04,42,12.20
2010,07,26,04,43,12.20
2010,07,26,04,44,12.20
2010,07,26,04,45,12.20
2010,07,26,04,46,12.20
2010,07,26,04,47,12.20
2010,07,26,04,48,12.20
2010,07,26,04,49,12.20
2010,07,26,04,50,12.20
2010,07,26,04,51,12.20
2010,07,26,04,52,12.20
2010,07,26,04,53,12.10
2010,07,26,04,54,12.10
2010,07,26,04,55,12.10
2010,07,26,04,56,12.10
2010,07,26,04,57,12.10
2010,07,26,04,58,12.10
2010,07,26,04,59,12.10
2010,07,26,05,00,12.10
2010,07,26,05,01,12.10
2010,07,26,05,02,12.10
2010,07,26,05,03,12.00
2010,07,26,05,04,12.00
2010,07,26,05,05,12.00
2010,07,26,05,06,12.00
2010,07,26,05,07,12.00
2010,07,26,05,08,12.00
2010,07,26,05,09,12.00
2010,07,26,05,10,12.00
2010,07,26,05,11,12.00
2010,07,26,05,12,11.90
2010,07,26,05,13,11.90
2010,07,26,05,14,11.90
2010,07,26,05,15,11.90
2010,07,26,05,16,11.90
2010,07,26,05,17,11.90
2010,07,26,05,18,11.90
2010,07,26,05,19,11.90
2010,07,26,05,20,11.90
2010,07,26,05,21,11.90
2010,07,26,05,22,11.80
2010,07,26,05,23,11.80
2010,07,26,05,24,11.80
2010,07,26,05,25,11.80
2010,07,26,05,26,11.80
2010,07,26,05,27,11.80
2010,07,26,05,28,11.80
2010,07,26,05,29,11.80
2010,07,26,05,30,11.80
2010,07,26,05,31,11.70
2010,07,26,05,32,11.70
2010,07,26,05,33,11.70
2010,07,26,05,34,11.70
2010,07,26,05,35,11.70
2010,07,26,05,36,11.70
2010,07,26,05,37,11.70
2010,07,26,05,38,11.70
2010,07,26,05,39,11.70
2010,07,26,05,40,11.70
2010,07,26,05,41,11.60
2010,07,26,05,42,11.60
2010,07,26,05,43,11.60
2010,07,26,05,44,11.60
2010,07,26,05,45,11.60
2010,07,26,05,46,11.60
2010,07,26,05,47,11.60
2010,07,26,05,48,11.50
2010,07,26,05,49,11.50
2010,07,26,05,50,11.50
2010,07,26,05,51,11.50
2010,07,26,05,52,11.50
2010,07,26,05,53,11.40
2010,07,26,05,54,11.40
2010,07,26,05,55,11.40
2010,07,26,05,56,11.40
2010,07,26,05,57,11.40
2010,07,26,05,58,11.40
2010,07,26,05,59,11.40
2010,07,26,06,00,11.40
2010,07,26,06,01,11.40
2010,07,26,06,02,11.40
2010,07,26,06,03,11.50
2010,07,26,06,04,11.50
2010,07,26,06,05,11.50
2010,07,26,06,06,11.50
2010,07,26,06,07,11.50
2010,07,26,06,08,11.50
2010,07,26,06,09,11.50
2010,07,26,06,10,11.50
2010,07,26,06,11,11.50
2010,07,26,06,12,11.50
2010,07,26,06,13,11.60
2010,07,26,06,14,11.60
2010,07,26,06,15,11.60
2010,07,26,06,16,11.60
2010,07,26,06,17,11.50
2010,07,26,06,18,11.50
2010,07,26,06,19,11.50
2010,07,26,06,20,11.60
2010,07,26,06,21,11.60
2010,07,26,06,22,11.60
2010,07,26,06,23,11.60
2010,07,26,06,24,11.60
2010,07,26,06,25,11.60
2010,07,26,06,26,11.60
2010,07,26,06,27,11.60
2010,07,26,06,28,11.60
2010,07,26,06,29,11.60
2010,07,26,06,30,11.60
2010,07,26,06,31,11.60
2010,07,26,06,32,11.60
2010,07,26,06,33,11.60
2010,07,26,06,34,11.60
2010,07,26,06,35,11.60
2010,07,26,06,36,11.60
2010,07,26,06,37,11.60
2010,07,26,06,38,11.60
2010,07,26,06,39,11.60
2010,07,26,06,40,11.70
2010,07,26,06,41,11.70
2010,07,26,06,42,11.70
2010,07,26,06,43,11.70
2010,07,26,06,44,11.70
2010,07,26,06,45,11.80
2010,07,26,06,46,11.80
2010,07,26,06,47,11.80
2010,07,26,06,48,11.80
2010,07,26,06,49,11.80
2010,07,26,06,50,11.80
2010,07,26,06,51,11.80
2010,07,26,06,52,11.80
2010,07,26,06,53,11.80
2010,07,26,06,54,11.80
2010,07,26,06,55,11.80
2010,07,26,06,56,11.80
2010,07,26,06,57,11.80
2010,07,26,06,58,11.90
2010,07,26,06,59,11.90
2010,07,26,07,00,11.90
2010,07,26,07,01,11.90
2010,07,26,07,02,11.90
2010,07,26,07,03,12.00
2010,07,26,07,04,12.00
2010,07,26,07,05,12.00
2010,07,26,07,06,12.10
2010,07,26,07,07,12.10
2010,07,26,07,08,12.10
2010,07,26,07,09,12.20
2010,07,26,07,10,12.20
2010,07,26,07,11,12.20
2010,07,26,07,12,12.30
2010,07,26,07,13,12.30
2010,07,26,07,14,12.40
2010,07,26,07,15,12.40
2010,07,26,07,16,12.50
2010,07,26,07,17,12.50
2010,07,26,07,18,12.60
2010,07,26,07,19,12.60
2010,07,26,07,20,12.70
2010,07,26,07,21,12.70
2010,07,26,07,22,12.80
2010,07,26,07,23,12.80
2010,07,26,07,24,12.90
2010,07,26,07,25,13.00
2010,07,26,07,26,13.00
2010,07,26,07,27,13.10
2010,07,26,07,28,13.10
2010,07,26,07,29,13.20
2010,07,26,07,30,13.20
2010,07,26,07,31,13.30
2010,07,26,07,32,13.30
2010,07,26,07,33,13.40
2010,07,26,07,34,13.50
2010,07,26,07,35,13.60
2010,07,26,07,36,13.60
2010,07,26,07,37,13.70
2010,07,26,07,38,13.90
2010,07,26,07,39,14.00
2010,07,26,07,40,14.10
2010,07,26,07,41,14.20
2010,07,26,07,42,14.30
2010,07,26,07,43,14.40
2010,07,26,07,44,14.40
2010,07,26,07,45,14.50
2010,07,26,07,46,14.60
2010,07,26,07,47,14.70
2010,07,26,07,48,14.70
2010,07,26,07,49,14.80
2010,07,26,07,50,14.80
2010,07,26,07,51,14.90
2010,07,26,07,52,14.90
2010,07,26,07,53,15.00
2010,07,26,07,54,15.10
2010,07,26,07,55,15.10
2010,07,26,07,56,15.20
2010,07,26,07,57,15.30
2010,07,26,07,58,15.40
2010,07,26,07,59,15.40
2010,07,26,08,00,15.50
2010,07,26,08,01,15.60
2010,07,26,08,02,15.60
2010,07,26,08,03,15.70
2010,07,26,08,04,15.70
2010,07,26,08,05,15.80
2010,07,26,08,06,15.80
2010,07,26,08,07,15.90
2010,07,26,08,08,15.90
2010,07,26,08,09,16.00
2010,07,26,08,10,16.00
2010,07,26,08,11,16.10
2010,07,26,08,12,16.10
2010,07,26,08,13,16.20
2010,07,26,08,14,16.20
2010,07,26,08,15,16.30
2010,07,26,08,16,16.30
2010,07,26,08,17,16.30
2010,07,26,08,18,16.30
2010,07,26,08,19,16.40
2010,07,26,08,20,16.40
2010,07,26,08,21,16.40
2010,07,26,08,22,16.40
2010,07,26,08,23,16.50
2010,07,26,08,24,16.50
2010,07,26,08,25,16.50
2010,07,26,08,26,16.50
2010,07,26,08,27,16.60
2010,07,26,08,28,16.60
2010,07,26,08,29,16.60
2010,07,26,08,30,16.60
2010,07,26,08,31,16.60
2010,07,26,08,32,16.60
2010,07,26,08,33,16.60
2010,07,26,08,34,16.70
2010,07,26,08,35,16.70
2010,07,26,08,36,16.70
2010,07,26,08,37,16.70
2010,07,26,08,38,16.80
2010,07,26,08,39,16.80
2010,07,26,08,40,16.80
2010,07,26,08,41,16.80
2010,07,26,08,42,16.70
2010,07,26,08,43,16.70
2010,07,26,08,44,16.70
2010,07,26,08,45,16.70
2010,07,26,08,46,16.70
2010,07,26,08,47,16.70
2010,07,26,08,48,16.70
2010,07,26,08,49,16.60
2010,07,26,08,50,16.60
2010,07,26,08,51,16.70
2010,07,26,08,52,16.70
2010,07,26,08,53,16.70
2010,07,26,08,54,16.80
2010,07,26,08,55,16.80
2010,07,26,08,56,16.80
2010,07,26,08,57,16.80
2010,07,26,08,58,16.90
2010,07,26,08,59,16.90
2010,07,26,09,00,16.90
2010,07,26,09,01,16.90
2010,07,26,09,02,16.90
2010,07,26,09,03,16.90
2010,07,26,09,04,16.90
2010,07,26,09,05,16.90
2010,07,26,09,06,16.90
2010,07,26,09,07,16.90
2010,07,26,09,08,16.90
2010,07,26,09,09,16.90
2010,07,26,09,10,16.90
2010,07,26,09,11,16.90
2010,07,26,09,12,16.90
2010,07,26,09,13,16.80
2010,07,26,09,14,16.80
2010,07,26,09,15,16.80
2010,07,26,09,16,16.80
2010,07,26,09,17,16.80
2010,07,26,09,18,16.80
2010,07,26,09,19,16.80
2010,07,26,09,20,16.80
2010,07,26,09,21,16.80
2010,07,26,09,22,16.80
2010,07,26,09,23,16.80
2010,07,26,09,24,16.80
2010,07,26,09,25,16.90
2010,07,26,09,26,16.90
2010,07,26,09,27,17.00
2010,07,26,09,28,17.00
2010,07,26,09,29,17.00
2010,07,26,09,30,17.00
2010,07,26,09,31,17.00
2010,07,26,09,32,17.00
2010,07,26,09,33,17.00
2010,07,26,09,34,17.00
2010,07,26,09,35,16.90
2010,07,26,09,36,16.90
2010,07,26,09,37,16.80
2010,07,26,09,38,16.90
2010,07,26,09,39,16.90
2010,07,26,09,40,16.90
2010,07,26,09,41,16.90
2010,07,26,09,42,17.00
2010,07,26,09,43,17.00
2010,07,26,09,44,17.00
2010,07,26,09,45,17.00
2010,07,26,09,46,17.10
2010,07,26,09,47,17.10
2010,07,26,09,48,17.20
2010,07,26,09,49,17.20
2010,07,26,09,50,17.20
2010,07,26,09,51,17.20
2010,07,26,09,52,17.20
2010,07,26,09,53,17.20
2010,07,26,09,54,17.20
2010,07,26,09,55,17.20
2010,07,26,09,56,17.20
2010,07,26,09,57,17.20
2010,07,26,09,58,17.30
2010,07,26,09,59,17.20
2010,07,26,10,00,17.10
2010,07,26,10,01,17.00
2010,07,26,10,02,17.00
2010,07,26,10,03,17.10
2010,07,26,10,04,17.10
2010,07,26,10,05,17.10
2010,07,26,10,06,17.10
2010,07,26,10,07,17.10
2010,07,26,10,08,17.20
2010,07,26,10,09,17.20
2010,07,26,10,10,17.20
2010,07,26,10,11,17.20
2010,07,26,10,12,17.20
2010,07,26,10,13,17.20
2010,07,26,10,14,17.20
2010,07,26,10,15,17.30
2010,07,26,10,16,17.30
2010,07,26,10,17,17.40
2010,07,26,10,18,17.30
2010,07,26,10,19,17.30
2010,07,26,10,20,17.30
2010,07,26,10,21,17.30
2010,07,26,10,22,17.40
2010,07,26,10,23,17.50
2010,07,26,10,24,17.50
2010,07,26,10,25,17.60
2010,07,26,10,26,17.70
2010,07,26,10,27,17.70
2010,07,26,10,28,17.70
2010,07,26,10,29,17.70
2010,07,26,10,30,17.70
2010,07,26,10,31,17.70
2010,07,26,10,32,17.70
2010,07,26,10,33,17.70
2010,07,26,10,34,17.70
2010,07,26,10,35,17.70
2010,07,26,10,36,17.70
2010,07,26,10,37,17.80
2010,07,26,10,38,17.80
2010,07,26,10,39,17.90
2010,07,26,10,40,17.90
2010,07,26,10,41,17.90
2010,07,26,10,42,17.90
2010,07,26,10,43,17.80
2010,07,26,10,44,17.80
2010,07,26,10,45,17.80
2010,07,26,10,46,17.80
2010,07,26,10,47,17.80
2010,07,26,10,48,17.80
2010,07,26,10,49,17.80
2010,07,26,10,50,17.80
2010,07,26,10,51,17.80
2010,07,26,10,52,17.80
2010,07,26,10,53,17.80
2010,07,26,10,54,17.80
2010,07,26,10,55,17.80
2010,07,26,10,56,17.70
2010,07,26,10,57,17.70
2010,07,26,10,58,17.80
2010,07,26,10,59,17.80
2010,07,26,11,00,17.80
2010,07,26,11,01,17.80
2010,07,26,11,02,17.70
2010,07,26,11,03,17.80
2010,07,26,11,04,17.80
2010,07,26,11,05,17.80
2010,07,26,11,06,17.90
2010,07,26,11,07,17.90
2010,07,26,11,08,18.00
2010,07,26,11,09,18.00
2010,07,26,11,10,18.00
2010,07,26,11,11,18.10
2010,07,26,11,12,18.10
2010,07,26,11,13,18.00
2010,07,26,11,14,18.00
2010,07,26,11,15,18.00
2010,07,26,11,16,18.10
2010,07,26,11,17,18.10
2010,07,26,11,18,18.10
2010,07,26,11,19,18.20
2010,07,26,11,20,18.30
2010,07,26,11,21,18.30
2010,07,26,11,22,18.30
2010,07,26,11,23,18.40
2010,07,26,11,24,18.40
2010,07,26,11,25,18.40
2010,07,26,11,26,18.40
2010,07,26,11,27,18.30
2010,07,26,11,28,18.30
2010,07,26,11,29,18.40
2010,07,26,11,30,18.50
2010,07,26,11,31,18.50
2010,07,26,11,32,18.60
2010,07,26,11,33,18.70
2010,07,26,11,34,18.80
2010,07,26,11,35,19.00
2010,07,26,11,36,19.10
2010,07,26,11,37,19.20
2010,07,26,11,38,19.20
2010,07,26,11,39,19.30
2010,07,26,11,40,19.40
2010,07,26,11,41,19.40
2010,07,26,11,42,19.40
2010,07,26,11,43,19.40
2010,07,26,11,44,19.30
2010,07,26,11,45,19.20
2010,07,26,11,46,19.20
2010,07,26,11,47,19.20
2010,07,26,11,48,19.20
2010,07,26,11,49,19.30
2010,07,26,11,50,19.50
2010,07,26,11,51,19.60
2010,07,26,11,52,19.70
2010,07,26,11,53,19.60
2010,07,26,11,54,19.60
2010,07,26,11,55,19.60
2010,07,26,11,56,19.60
2010,07,26,11,57,19.60
2010,07,26,11,58,19.60
2010,07,26,11,59,19.60
2010,07,26,12,00,19.50
2010,07,26,12,01,19.40
2010,07,26,12,02,19.30
2010,07,26,12,03,19.30
2010,07,26,12,04,19.20
2010,07,26,12,05,19.20
2010,07,26,12,06,19.30
2010,07,26,12,07,19.30
2010,07,26,12,08,19.30
2010,07,26,12,09,19.40
2010,07,26,12,10,19.50
2010,07,26,12,11,19.50
2010,07,26,12,12,19.60
2010,07,26,12,13,19.70
2010,07,26,12,14,19.80
2010,07,26,12,15,19.80
2010,07,26,12,16,19.80
2010,07,26,12,17,19.70
2010,07,26,12,18,19.50
2010,07,26,12,19,19.50
2010,07,26,12,20,19.40
2010,07,26,12,21,19.40
2010,07,26,12,22,19.40
2010,07,26,12,23,19.40
2010,07,26,12,24,19.40
2010,07,26,12,25,19.40
2010,07,26,12,26,19.40
2010,07,26,12,27,19.40
2010,07,26,12,28,19.50
2010,07,26,12,29,19.50
2010,07,26,12,30,19.60
2010,07,26,12,31,19.50
2010,07,26,12,32,19.50
2010,07,26,12,33,19.60
2010,07,26,12,34,19.60
2010,07,26,12,35,19.60
2010,07,26,12,36,19.50
2010,07,26,12,37,19.40
2010,07,26,12,38,19.50
2010,07,26,12,39,19.60
2010,07,26,12,40,19.70
2010,07,26,12,41,19.70
2010,07,26,12,42,19.70
2010,07,26,12,43,19.80
2010,07,26,12,44,19.90
2010,07,26,12,45,19.90
2010,07,26,12,46,19.90
2010,07,26,12,47,19.90
2010,07,26,12,48,20.00
2010,07,26,12,49,20.00
2010,07,26,12,50,20.10
2010,07,26,12,51,20.20
2010,07,26,12,52,20.10
2010,07,26,12,53,20.20
2010,07,26,12,54,20.30
2010,07,26,12,55,20.30
2010,07,26,12,56,20.30
2010,07,26,12,57,20.30
2010,07,26,12,58,20.30
2010,07,26,12,59,20.30
2010,07,26,13,00,20.20
2010,07,26,13,01,20.20
2010,07,26,13,02,20.20
2010,07,26,13,03,20.30
2010,07,26,13,04,20.40
2010,07,26,13,05,20.40
2010,07,26,13,06,20.30
2010,07,26,13,07,20.30
2010,07,26,13,08,20.20
2010,07,26,13,09,20.20
2010,07,26,13,10,20.20
2010,07,26,13,11,20.20
2010,07,26,13,12,20.20
2010,07,26,13,13,20.10
2010,07,26,13,14,20.10
2010,07,26,13,15,20.10
2010,07,26,13,16,20.10
2010,07,26,13,17,20.20
2010,07,26,13,18,20.30
2010,07,26,13,19,20.30
2010,07,26,13,20,20.30
2010,07,26,13,21,20.20
2010,07,26,13,22,20.20
2010,07,26,13,23,20.20
2010,07,26,13,24,20.20
2010,07,26,13,25,20.20
2010,07,26,13,26,20.10
2010,07,26,13,27,20.10
2010,07,26,13,28,20.10
2010,07,26,13,29,20.10
2010,07,26,13,30,20.10
2010,07,26,13,31,20.10
2010,07,26,13,32,20.10
2010,07,26,13,33,20.10
2010,07,26,13,34,20.10
2010,07,26,13,35,20.10
2010,07,26,13,36,20.10
2010,07,26,13,37,20.00
2010,07,26,13,38,20.00
2010,07,26,13,39,20.10
2010,07,26,13,40,20.10
2010,07,26,13,41,20.20
2010,07,26,13,42,20.20
2010,07,26,13,43,20.30
2010,07,26,13,44,20.30
2010,07,26,13,45,20.30
2010,07,26,13,46,20.40
2010,07,26,13,47,20.50
2010,07,26,13,48,20.60
2010,07,26,13,49,20.70
2010,07,26,13,50,20.80
2010,07,26,13,51,20.80
2010,07,26,13,52,20.80
2010,07,26,13,53,20.80
2010,07,26,13,54,20.80
2010,07,26,13,55,20.90
2010,07,26,13,56,21.00
2010,07,26,13,57,20.90
2010,07,26,13,58,20.90
2010,07,26,13,59,20.90
2010,07,26,14,00,21.00
2010,07,26,14,01,21.10
2010,07,26,14,02,21.20
2010,07,26,14,03,21.30
2010,07,26,14,04,21.30
2010,07,26,14,05,21.30
2010,07,26,14,06,21.30
2010,07,26,14,07,21.30
2010,07,26,14,08,21.20
2010,07,26,14,09,21.20
2010,07,26,14,10,21.20
2010,07,26,14,11,21.20
2010,07,26,14,12,21.30
2010,07,26,14,13,21.30
2010,07,26,14,14,21.30
2010,07,26,14,15,21.30
2010,07,26,14,16,21.40
2010,07,26,14,17,21.40
2010,07,26,14,18,21.50
2010,07,26,14,19,21.50
2010,07,26,14,20,21.50
2010,07,26,14,21,21.60
2010,07,26,14,22,21.80
2010,07,26,14,23,22.00
2010,07,26,14,24,22.10
2010,07,26,14,25,22.10
2010,07,26,14,26,22.00
2010,07,26,14,27,21.90
2010,07,26,14,28,21.90
2010,07,26,14,29,21.90
2010,07,26,14,30,21.90
2010,07,26,14,31,21.90
2010,07,26,14,32,21.90
2010,07,26,14,33,22.10
2010,07,26,14,34,22.20
2010,07,26,14,35,22.30
2010,07,26,14,36,22.30
2010,07,26,14,37,22.30
2010,07,26,14,38,22.20
2010,07,26,14,39,22.20
2010,07,26,14,40,22.40
2010,07,26,14,41,22.50
2010,07,26,14,42,22.50
2010,07,26,14,43,22.60
2010,07,26,14,44,22.60
2010,07,26,14,45,22.60
2010,07,26,14,46,22.60
2010,07,26,14,47,22.60
2010,07,26,14,48,22.70
2010,07,26,14,49,22.70
2010,07,26,14,50,22.70
2010,07,26,14,51,22.70
2010,07,26,14,52,22.80
2010,07,26,14,53,22.80
2010,07,26,14,54,22.90
2010,07,26,14,55,22.90
2010,07,26,14,56,22.90
2010,07,26,14,57,22.90
2010,07,26,14,58,22.90
2010,07,26,14,59,22.90
2010,07,26,15,00,23.10
2010,07,26,15,01,23.20
2010,07,26,15,02,23.40
2010,07,26,15,03,23.50
2010,07,26,15,04,23.50
2010,07,26,15,05,23.50
2010,07,26,15,06,23.50
2010,07,26,15,07,23.60
2010,07,26,15,08,23.60
2010,07,26,15,09,23.60
2010,07,26,15,10,23.60
2010,07,26,15,11,23.40
2010,07,26,15,12,23.30
2010,07,26,15,13,23.20
2010,07,26,15,14,23.20
2010,07,26,15,15,23.20
2010,07,26,15,16,23.30
2010,07,26,15,17,23.40
2010,07,26,15,18,23.40
2010,07,26,15,19,23.50
2010,07,26,15,20,23.50
2010,07,26,15,21,23.60
2010,07,26,15,22,23.70
2010,07,26,15,23,23.70
2010,07,26,15,24,23.70
2010,07,26,15,25,23.70
2010,07,26,15,26,23.70
2010,07,26,15,27,23.70
2010,07,26,15,28,23.60
2010,07,26,15,29,23.50
2010,07,26,15,30,23.40
2010,07,26,15,31,23.30
2010,07,26,15,32,23.30
2010,07,26,15,33,23.40
2010,07,26,15,34,23.60
2010,07,26,15,35,23.80
2010,07,26,15,36,23.90
2010,07,26,15,37,23.80
2010,07,26,15,38,23.80
2010,07,26,15,39,23.80
2010,07,26,15,40,23.90
2010,07,26,15,41,24.00
2010,07,26,15,42,24.10
2010,07,26,15,43,24.10
2010,07,26,15,44,24.20
2010,07,26,15,45,24.30
2010,07,26,15,46,24.40
2010,07,26,15,47,24.50
2010,07,26,15,48,24.60
2010,07,26,15,49,24.60
2010,07,26,15,50,24.70
2010,07,26,15,51,24.80
2010,07,26,15,52,25.00
2010,07,26,15,53,25.00
2010,07,26,15,54,24.90
2010,07,26,15,55,24.70
2010,07,26,15,56,24.50
2010,07,26,15,57,24.30
2010,07,26,15,58,24.20
2010,07,26,15,59,24.10
2010,07,26,16,00,24.20
2010,07,26,16,01,24.30
2010,07,26,16,02,24.50
2010,07,26,16,03,24.50
2010,07,26,16,04,24.60
2010,07,26,16,05,24.70
2010,07,26,16,06,24.90
2010,07,26,16,07,25.10
2010,07,26,16,08,25.10
2010,07,26,16,09,25.00
2010,07,26,16,10,24.80
2010,07,26,16,11,24.60
2010,07,26,16,12,24.50
2010,07,26,16,13,24.50
2010,07,26,16,14,24.50
2010,07,26,16,15,24.50
2010,07,26,16,16,24.50
2010,07,26,16,17,24.60
2010,07,26,16,18,24.60
2010,07,26,16,19,24.70
2010,07,26,16,20,24.80
2010,07,26,16,21,24.90
2010,07,26,16,22,25.00
2010,07,26,16,23,25.00
2010,07,26,16,24,25.20
2010,07,26,16,25,25.20
2010,07,26,16,26,25.20
2010,07,26,16,27,25.00
2010,07,26,16,28,24.90
2010,07,26,16,29,24.80
2010,07,26,16,30,24.80
2010,07,26,16,31,24.80
2010,07,26,16,32,24.80
2010,07,26,16,33,24.90
2010,07,26,16,34,25.00
2010,07,26,16,35,25.00
2010,07,26,16,36,24.90
2010,07,26,16,37,24.90
2010,07,26,16,38,24.90
2010,07,26,16,39,24.90
2010,07,26,16,40,24.90
2010,07,26,16,41,25.00
2010,07,26,16,42,25.00
2010,07,26,16,43,24.90
2010,07,26,16,44,24.90
2010,07,26,16,45,24.90
2010,07,26,16,46,24.90
2010,07,26,16,47,25.00
2010,07,26,16,48,25.00
2010,07,26,16,49,25.00
2010,07,26,16,50,25.00
2010,07,26,16,51,24.90
2010,07,26,16,52,24.80
2010,07,26,16,53,24.80
2010,07,26,16,54,24.80
2010,07,26,16,55,24.80
2010,07,26,16,56,24.80
2010,07,26,16,57,24.80
2010,07,26,16,58,24.80
2010,07,26,16,59,24.90
2010,07,26,17,00,24.90
2010,07,26,17,01,25.00
2010,07,26,17,02,25.00
2010,07,26,17,03,25.00
2010,07,26,17,04,25.00
2010,07,26,17,05,24.90
2010,07,26,17,06,24.90
2010,07,26,17,07,25.00
2010,07,26,17,08,25.10
2010,07,26,17,09,25.10
2010,07,26,17,10,25.20
2010,07,26,17,11,25.30
2010,07,26,17,12,25.30
2010,07,26,17,13,25.30
2010,07,26,17,14,25.30
2010,07,26,17,15,25.40
2010,07,26,17,16,25.40
2010,07,26,17,17,25.40
2010,07,26,17,18,25.30
2010,07,26,17,19,25.30
2010,07,26,17,20,25.30
2010,07,26,17,21,25.20
2010,07,26,17,22,25.10
2010,07,26,17,23,25.00
2010,07,26,17,24,24.90